White Plains, CT

10:11 PM EST on November 17, 2019 (GMT -0500)
Westchester County

Weather History for KHPN - September, 2019

Change the Weather History Date:

Thursday, September 19, 2019

  Actual Average Record
Temperature  
Mean Temperature 54 °F -  
Max Temperature 66 °F 70 °F 93 °F (1983)
Min Temperature 43 °F 53 °F 40 °F (1979)
Degree Days  
Heating Degree Days 10    
Growing Degree Days 4 (Base 50)    
Moisture  
Dew Point 41 °F    
Average Humidity 60    
Maximum Humidity 86    
Minimum Humidity 36    
Precipitation  
Precipitation 0.00 in - - ()
Sea Level Pressure  
Sea Level Pressure 30.32 in    
Wind  
Wind Speed 4 mph ()    
Max Wind Speed 8 mph    
Max Gust Speed -    
Visibility 10.0 miles    
Events      
Averages and records for this station are not official NWS values.
T = Trace of Precipitation, MM = Missing Value Source: Averaged Metar Reports

Daily Weather History Graph

Daily Weather History Graph

Search for Another Location

Airport or City:

Astronomy

Sep. 19, 2019 Rise Set
Actual Time 6:39 AM EDT 6:57 PM EDT
Civil Twilight 6:11 AM EDT 7:25 PM EDT
Nautical Twilight 5:39 AM EDT 7:57 PM EDT
Astronomical Twilight 5:06 AM EDT 8:30 PM EDT
Moon 10:02 PM EDT (9/19) 11:42 AM EDT (9/19)
Length of Visible Light 13h 13m
Length of Day
12h 18m
Waning Gibbous, 74% of the Moon is Illuminated
Sep 19
Waning Gibbous
Sep 21
Last Quarter
Sep 28
New
Oct 5
First Quarter
Oct 13
Full

Hourly Weather History & Observations

Time (EDT) Temp. Windchill Dew Point Humidity Pressure Visibility Wind Dir Wind Speed Gust Speed Precip Events Conditions
12:56 AM 50.0 °F - 41.0 °F 71% 30.32 in 10.0 mi NE 5.8 mph - N/A   Clear
1:56 AM 51.1 °F - 37.0 °F 59% 30.33 in 10.0 mi NNE 6.9 mph - N/A   Clear
2:56 AM 48.9 °F - 37.0 °F 64% 30.32 in 10.0 mi NE 4.6 mph - N/A   Clear
3:56 AM 48.0 °F - 37.0 °F 66% 30.32 in 10.0 mi NNE 6.9 mph - N/A   Clear
4:56 AM 45.0 °F 41.2 °F 37.9 °F 76% 30.32 in 10.0 mi North 6.9 mph - N/A   Clear
5:56 AM 44.1 °F 41.5 °F 39.0 °F 82% 30.33 in 10.0 mi NNW 4.6 mph - N/A   Clear
6:56 AM 43.0 °F 38.2 °F 39.0 °F 86% 30.35 in 10.0 mi NNW 8.1 mph - N/A   Clear
7:56 AM 51.1 °F - 41.0 °F 68% 30.35 in 10.0 mi North 8.1 mph - N/A   Clear
8:56 AM 55.0 °F - 42.1 °F 62% 30.37 in 10.0 mi North 4.6 mph - N/A   Partly Cloudy
9:56 AM 57.9 °F - 41.0 °F 53% 30.38 in 10.0 mi Variable 4.6 mph - N/A   Partly Cloudy
10:56 AM 61.0 °F - 41.0 °F 48% 30.37 in 10.0 mi Calm Calm - N/A   Partly Cloudy
11:56 AM 64.0 °F - 37.9 °F 38% 30.35 in 10.0 mi North 5.8 mph - N/A   Partly Cloudy
12:56 PM 64.9 °F - 37.0 °F 36% 30.33 in 10.0 mi ESE 6.9 mph - N/A   Clear
1:56 PM 64.9 °F - 42.1 °F 43% 30.32 in 10.0 mi Variable 5.8 mph - N/A   Clear
2:56 PM 66.0 °F - 42.1 °F 42% 30.32 in 10.0 mi Variable 3.5 mph - N/A   Clear
3:56 PM 66.0 °F - 42.1 °F 42% 30.30 in 10.0 mi Calm Calm - N/A   Clear
4:56 PM 66.9 °F - 42.1 °F 40% 30.29 in 10.0 mi SSE 5.8 mph - N/A   Clear
5:56 PM 64.0 °F - 43.0 °F 46% 30.29 in 10.0 mi SSE 5.8 mph - N/A   Clear
6:56 PM 57.0 °F - 45.0 °F 64% 30.30 in 10.0 mi Calm Calm - N/A   Clear
7:56 PM 55.0 °F - 42.1 °F 62% 30.29 in 10.0 mi Calm Calm - N/A   Clear
8:56 PM 54.0 °F - 41.0 °F 62% 30.27 in 10.0 mi NW 3.5 mph - N/A   Clear
9:56 PM 52.0 °F - 42.1 °F 69% 30.27 in 10.0 mi Calm Calm - N/A   Clear
10:56 PM 51.1 °F - 44.1 °F 77% 30.27 in 10.0 mi Calm Calm - N/A   Clear
11:56 PM 50.0 °F - 46.0 °F 86% 30.27 in 10.0 mi WNW 4.6 mph - N/A   Clear